Torna al catalogo

FENGYUN 1C DEB

AttivoSSO
NORAD 37018·DEBRIS·🇨🇳 China

Lanciato May 10, 1999 da Taiyuan Satellite Launch Center

Loading…

Prossimi Passaggi (prossime 24 ore)

TLE

AggiornatoSource: Space-Track

Epoca: Sep 11, 2026, 08:35 UTC

1 37018U 99025EDA 26254.35796313  .00010780  00000-0  23365-2 0  9997
2 37018  98.4983 113.5533 0184324 175.8884 184.3876 14.48259433674665

Traccia FENGYUN 1C DEB in tempo reale con AllMySat

Download on the App Store